Weather History for KWWR - October, 2012

Change the Weather History Date:

Thursday, October 11, 2012

  Actual Average (KGAG) Record (KGAG)
Temperature  
Mean Temperature 70 °F -  
Max Temperature 86 °F 75 °F 93 °F (1962)
Min Temperature 53 °F 46 °F 28 °F (1993)
Cooling Degree Days 4    
Growing Degree Days 20 (Base 50)    
Moisture  
Dew Point 54 °F    
Average Humidity 61    
Maximum Humidity 82    
Minimum Humidity 37    
Precipitation  
Precipitation 0.00 in - - ()
Sea Level Pressure  
Sea Level Pressure 30.06 in    
Wind  
Wind Speed 13 mph (SSW)    
Max Wind Speed 28 mph    
Max Gust Speed 34 mph    
Visibility 10 miles    
Events      
Averages and records for this station are not official NWS values.
T = Trace of Precipitation, MM = Missing Value Source: NWS Daily Summary

Daily Weather History Graph

Daily Weather History Graph

Search for Another Location

Airport or City:

Trip Planner

Search our weather history database for the weather conditions in past years. The results will help you decide how hot, cold, wet, or windy it might be!

Date:

Astronomy

Oct. 11, 2012 Rise Set
Actual Time 7:42 AM CDT 7:06 PM CDT
Civil Twilight 7:16 AM CDT 7:32 PM CDT
Nautical Twilight 6:46 AM CDT 8:02 PM CDT
Astronomical Twilight 6:16 AM CDT 8:32 PM CDT
Moon 3:28 AM CDT (10/11) 4:38 PM CDT (10/11)
Length of Visible Light 12h 16m
Length of Day
11h 24m
Waning Crescent, 18% of the Moon is Illuminated
Oct 11
Waning Crescent
Oct 15
New
Oct 21
First Quarter
Oct 29
Full
Nov 6
Last Quarter

Hourly Weather History & Observations

Time (CDT) Temp. Heat Index Dew Point Humidity Pressure Visibility Wind Dir Wind Speed Gust Speed Precip Events Conditions
12:15 AM 59.0 °F - 39.2 °F 48% 30.13 in 10.0 mi South 9.2 mph - N/A   Overcast
12:35 AM 59.0 °F - 39.2 °F 48% 30.12 in 10.0 mi South 10.4 mph - N/A   Overcast
1:35 AM 59.0 °F - 42.8 °F 55% 30.11 in 10.0 mi South 11.5 mph - N/A   Overcast
1:55 AM 59.0 °F - 42.8 °F 55% 30.10 in 10.0 mi South 8.1 mph - N/A   Overcast
2:15 AM 59.0 °F - 44.6 °F 59% 30.10 in 10.0 mi South 9.2 mph - N/A   Overcast
2:35 AM 59.0 °F - 44.6 °F 59% 30.10 in 10.0 mi South 10.4 mph 18.4 mph N/A   Overcast
2:55 AM 59.0 °F - 46.4 °F 63% 30.10 in 10.0 mi South 12.7 mph 17.3 mph N/A   Overcast
3:15 AM 59.0 °F - 46.4 °F 63% 30.09 in 10.0 mi SSW 15.0 mph 19.6 mph N/A   Overcast
3:35 AM 57.2 °F - 46.4 °F 67% 30.09 in 10.0 mi South 11.5 mph - N/A   Overcast
3:55 AM 55.4 °F - 46.4 °F 72% 30.08 in 10.0 mi SSW 13.8 mph 18.4 mph N/A   Scattered Clouds
4:15 AM 55.4 °F - 48.2 °F 77% 30.07 in 10.0 mi SSW 16.1 mph 19.6 mph N/A   Clear
4:35 AM 55.4 °F - 48.2 °F 77% 30.07 in 10.0 mi SSW 13.8 mph - N/A   Clear
4:55 AM 55.4 °F - 48.2 °F 77% 30.07 in 10.0 mi SSW 11.5 mph 17.3 mph N/A   Clear
5:15 AM 53.6 °F - 46.4 °F 77% 30.07 in 10.0 mi SSW 9.2 mph - N/A   Clear
5:35 AM 53.6 °F - 46.4 °F 77% 30.07 in 10.0 mi SSW 10.4 mph - N/A   Clear
5:55 AM 53.6 °F - 46.4 °F 77% 30.07 in 10.0 mi SSW 6.9 mph - N/A   Clear
6:15 AM 53.6 °F - 46.4 °F 77% 30.07 in 10.0 mi SW 8.1 mph - N/A   Clear
6:35 AM 53.6 °F - 46.4 °F 77% 30.08 in 10.0 mi SW 8.1 mph - N/A   Clear
6:55 AM 53.6 °F - 46.4 °F 77% 30.08 in 10.0 mi SSW 10.4 mph - N/A   Clear
7:15 AM 53.6 °F - 46.4 °F 77% 30.07 in 10.0 mi SSW 8.1 mph - N/A   Clear
7:35 AM 53.6 °F - 46.4 °F 77% 30.07 in 10.0 mi South 8.1 mph - N/A   Clear
7:55 AM 53.6 °F - 48.2 °F 82% 30.07 in 10.0 mi South 11.5 mph - N/A   Scattered Clouds
8:15 AM 55.4 °F - 50.0 °F 82% 30.06 in 10.0 mi South 13.8 mph - N/A   Clear
8:35 AM 57.2 °F - 50.0 °F 77% 30.06 in 10.0 mi South 13.8 mph 20.7 mph N/A   Clear
8:55 AM 60.8 °F - 51.8 °F 72% 30.07 in 10.0 mi SSW 16.1 mph 21.9 mph N/A   Clear
9:15 AM 62.6 °F - 51.8 °F 68% 30.07 in 10.0 mi SSW 20.7 mph 25.3 mph N/A   Clear
9:35 AM 64.4 °F - 53.6 °F 68% 30.07 in 10.0 mi SSW 18.4 mph 25.3 mph N/A   Clear
9:55 AM 68.0 °F - 53.6 °F 60% 30.07 in 10.0 mi SSW 18.4 mph 25.3 mph N/A   Clear
10:15 AM 68.0 °F - 55.4 °F 64% 30.07 in 10.0 mi SSW 20.7 mph 26.5 mph N/A   Clear
10:35 AM 69.8 °F - 55.4 °F 60% 30.07 in 10.0 mi SSW 21.9 mph 25.3 mph N/A   Clear
10:55 AM 69.8 °F - 55.4 °F 60% 30.07 in 10.0 mi SSW 23.0 mph 31.1 mph N/A   Clear
11:15 AM 71.6 °F - 55.4 °F 57% 30.07 in 10.0 mi SSW 21.9 mph 29.9 mph N/A   Clear
11:35 AM 73.4 °F - 55.4 °F 53% 30.07 in 10.0 mi SSW 23.0 mph 28.8 mph N/A   Clear
11:55 AM 75.2 °F - 55.4 °F 50% 30.06 in 10.0 mi SSW 27.6 mph 34.5 mph N/A   Clear
12:15 PM 77.0 °F - 57.2 °F 50% 30.05 in 10.0 mi SSW 27.6 mph 34.5 mph N/A   Clear
12:55 PM 80.6 °F 80.8 °F 57.2 °F 45% 30.03 in 10.0 mi SW 24.2 mph 32.2 mph N/A   Clear
1:15 PM 80.6 °F 81.1 °F 59.0 °F 48% 30.02 in 10.0 mi SSW 21.9 mph 31.1 mph N/A   Clear
1:35 PM 80.6 °F 80.8 °F 57.2 °F 45% 30.02 in 10.0 mi SW 19.6 mph 29.9 mph N/A   Clear
1:55 PM 80.6 °F 80.8 °F 57.2 °F 45% 30.01 in 10.0 mi SSW 18.4 mph 28.8 mph N/A   Clear
2:15 PM 82.4 °F 82.0 °F 57.2 °F 42% 30.00 in 10.0 mi SSW 20.7 mph 32.2 mph N/A   Clear
2:35 PM 84.2 °F 83.5 °F 57.2 °F 40% 29.99 in 10.0 mi SSW 17.3 mph 24.2 mph N/A   Clear
2:55 PM 84.2 °F 83.5 °F 57.2 °F 40% 29.99 in 10.0 mi South 21.9 mph 26.5 mph N/A   Clear
3:15 PM 84.2 °F 83.5 °F 57.2 °F 40% 29.98 in 10.0 mi SSW 19.6 mph 26.5 mph N/A   Clear
3:35 PM 84.2 °F 83.5 °F 57.2 °F 40% 29.98 in 10.0 mi SSW 16.1 mph 24.2 mph N/A   Clear
3:55 PM 86.0 °F 84.9 °F 57.2 °F 37% 29.98 in 10.0 mi SSW 16.1 mph 23.0 mph N/A   Clear
4:15 PM 86.0 °F 84.9 °F 57.2 °F 37% 29.98 in 10.0 mi SSW 18.4 mph 25.3 mph N/A   Clear
4:35 PM 86.0 °F 84.9 °F 57.2 °F 37% 29.98 in 10.0 mi SSW 19.6 mph 27.6 mph N/A   Clear
5:15 PM 84.2 °F 83.5 °F 57.2 °F 40% 29.98 in 10.0 mi SSW 19.6 mph 25.3 mph N/A   Clear
5:35 PM 84.2 °F 83.0 °F 55.4 °F 37% 29.99 in 10.0 mi SSW 18.4 mph 23.0 mph N/A   Clear
5:55 PM 82.4 °F 82.0 °F 57.2 °F 42% 29.99 in 10.0 mi South 16.1 mph 23.0 mph N/A   Clear
6:35 PM 80.6 °F 81.1 °F 59.0 °F 48% 30.00 in 10.0 mi South 16.1 mph 21.9 mph N/A   Clear
6:55 PM 78.8 °F - 59.0 °F 51% 30.01 in 10.0 mi South 16.1 mph 20.7 mph N/A   Clear
7:15 PM 77.0 °F - 59.0 °F 54% 30.02 in 10.0 mi SSW 10.4 mph - N/A   Clear
7:35 PM 75.2 °F - 60.8 °F 61% 30.03 in 10.0 mi South 8.1 mph - N/A   Clear
8:15 PM 73.4 °F - 60.8 °F 65% 30.05 in 10.0 mi SSW 5.8 mph - N/A   Clear
8:35 PM 73.4 °F - 60.8 °F 65% 30.07 in 10.0 mi South 5.8 mph - N/A   Clear
8:55 PM 71.6 °F - 62.6 °F 73% 30.07 in 10.0 mi South 10.4 mph - N/A   Clear
9:15 PM 71.6 °F - 62.6 °F 73% 30.07 in 10.0 mi South 10.4 mph - N/A   Clear
9:35 PM 71.6 °F - 62.6 °F 73% 30.08 in 10.0 mi South 10.4 mph 17.3 mph N/A   Clear
9:55 PM 71.6 °F - 62.6 °F 73% 30.09 in 10.0 mi SSW 9.2 mph - N/A   Clear
10:35 PM 71.6 °F - 62.6 °F 73% 30.10 in 10.0 mi South 11.5 mph - N/A   Clear
10:55 PM 71.6 °F - 62.6 °F 73% 30.10 in 10.0 mi SSW 9.2 mph - N/A   Clear
11:15 PM 69.8 °F - 62.6 °F 78% 30.11 in 10.0 mi North 5.8 mph - N/A   Clear
11:35 PM 69.8 °F - 62.6 °F 78% 30.12 in 10.0 mi SW 3.5 mph - N/A   Scattered Clouds
11:55 PM 69.8 °F - 62.6 °F 78% 30.12 in 10.0 mi Calm Calm - N/A   Mostly Cloudy